,,Stat1,,Stat2,,Stat3,,Stat4,,Wind1,,Wind1,
time,status,PR1M_SUM,status,RH1M_AVG,status,SR1M_AVG,status,TA1M_AVG,status,W1dAve1m,status,W1sAve1m,
1999-10-19, 00:01:00,VALID,0,VALID,98.9474,VALID,0,VALID,20.1368,VALID,113,VALID,0.715144,
1999-10-19, 00:02:01,VALID,0,VALID,99.0262,VALID,0,VALID,20.1465,VALID,104,VALID,0.494992,
1999-10-19, 00:03:00,VALID,0,VALID,99.0733,VALID,-0.0169808,VALID,20.1791,VALID,106,VALID,0.100929,
1999-10-19, 00:04:00,VALID,0,VALID,99.0911,VALID,0,VALID,20.1886,VALID,114,VALID,0.159655,
1999-10-19, 00:05:00,VALID,0,VALID,99.0529,VALID,0,VALID,20.1915,VALID,116,VALID,0.0026727,
1999-10-19, 00:06:00,VALID,0,VALID,99.0198,VALID,0,VALID,20.1756,VALID,153,VALID,0.0316723,
1999-10-19, 00:07:00,VALID,0,VALID,99.0262,VALID,-0.0339617,VALID,20.1826,VALID,100,VALID,0.139623,
1999-10-19, 00:08:00,VALID,0,VALID,98.9919,VALID,-0.0169808,VALID,20.1627,VALID,7,VALID,0.236486,
1999-10-19, 00:09:00,VALID,0,VALID,98.9741,VALID,-0.0169808,VALID,20.1597,VALID,58,VALID,0.621094,
1999-10-19, 00:10:00,VALID,0,VALID,99.0287,VALID,-0.0169808,VALID,20.1565,VALID,56,VALID,0.660056,
1999-10-19, 00:11:00,VALID,0,VALID,99.0109,VALID,0,VALID,20.14,VALID,102,VALID,0.703726,
1999-10-19, 00:12:00,VALID,0,VALID,99.0618,VALID,-0.0339617,VALID,20.1575,VALID,93,VALID,0.513775,
1999-10-19, 00:13:00,VALID,0,VALID,99.0071,VALID,0,VALID,20.1142,VALID,102,VALID,0.915064,
1999-10-19, 00:14:00,VALID,0,VALID,99.03,VALID,0,VALID,20.088,VALID,93,VALID,0.38457,
1999-10-19, 00:15:00,VALID,0,VALID,99.1165,VALID,-0.0169808,VALID,20.095,VALID,99,VALID,1.11534,
1999-10-19, 00:16:00,VALID,0,VALID,99.1788,VALID,0,VALID,20.0883,VALID,96,VALID,1.06726,
1999-10-19, 00:17:00,VALID,0.2,VALID,99.2195,VALID,-0.0339617,VALID,20.0821,VALID,93,VALID,1.03968,
1999-10-19, 00:18:00,VALID,0,VALID,99.2373,VALID,0,VALID,20.0791,VALID,106,VALID,0.837377,
1999-10-19, 00:19:00,VALID,0,VALID,99.2754,VALID,0,VALID,20.0721,VALID,113,VALID,0.999383,
1999-10-19, 00:20:00,VALID,0,VALID,99.3428,VALID,-0.0339617,VALID,20.1015,VALID,100,VALID,0.80957,
1999-10-19, 00:21:00,VALID,0,VALID,99.3619,VALID,0,VALID,20.0953,VALID,96,VALID,1.20012,
1999-10-19, 00:22:00,VALID,0,VALID,99.3543,VALID,-0.0339617,VALID,20.0888,VALID,92,VALID,0.972973,
1999-10-19, 00:23:00,VALID,0,VALID,99.4344,VALID,-0.0169808,VALID,20.1017,VALID,100,VALID,1.18421,
1999-10-19, 00:24:00,VALID,0,VALID,99.4827,VALID,0,VALID,20.1179,VALID,102,VALID,0.91543,
1999-10-19, 00:25:01,VALID,0,VALID,99.5018,VALID,-0.0169808,VALID,20.1244,VALID,98,VALID,0.933388,
1999-10-19, 00:26:00,VALID,0.2,VALID,99.4751,VALID,-0.0169808,VALID,20.1109,VALID,84,VALID,1.16509,
1999-10-19, 00:27:00,VALID,0,VALID,99.4128,VALID,-0.0339617,VALID,20.0594,VALID,91,VALID,1.42428,
1999-10-19, 00:28:00,VALID,0,VALID,99.4433,VALID,-0.0509425,VALID,20.0624,VALID,94,VALID,1.19779,
1999-10-19, 00:29:00,VALID,0,VALID,99.4903,VALID,-0.0339617,VALID,20.0793,VALID,103,VALID,1.35312,
1999-10-19, 00:30:00,VALID,0,VALID,99.5069,VALID,0,VALID,20.0788,VALID,107,VALID,0.996299,
1999-10-19, 00:31:00,VALID,0,VALID,99.4853,VALID,0,VALID,20.0597,VALID,95,VALID,1.30469,
1999-10-19, 00:32:00,VALID,0,VALID,99.517,VALID,-0.0169808,VALID,20.0627,VALID,102,VALID,1.0014,
1999-10-19, 00:33:00,VALID,0,VALID,99.5704,VALID,-0.0339617,VALID,20.0826,VALID,97,VALID,1.30391,
1999-10-19, 00:34:00,VALID,0,VALID,99.5806,VALID,-0.0339617,VALID,20.0793,VALID,98,VALID,1.06785,
1999-10-19, 00:35:00,VALID,0,VALID,99.5628,VALID,0,VALID,20.0659,VALID,90,VALID,0.832899,
1999-10-19, 00:36:01,VALID,0,VALID,99.5387,VALID,-0.0339617,VALID,20.0565,VALID,93,VALID,0.692708,
1999-10-19, 00:37:00,VALID,0,VALID,99.5361,VALID,-0.0509425,VALID,20.0338,VALID,72,VALID,0.518483,
1999-10-19, 00:38:00,VALID,0.2,VALID,99.4713,VALID,-0.0339617,VALID,19.9821,VALID,78,VALID,0.627534,
1999-10-19, 00:39:00,VALID,0,VALID,99.4827,VALID,-0.0169808,VALID,19.9753,VALID,91,VALID,0.801758,
1999-10-19, 00:40:00,VALID,0,VALID,99.5259,VALID,-0.0169808,VALID,19.9758,VALID,97,VALID,0.487048,
1999-10-19, 00:41:00,VALID,0,VALID,99.5794,VALID,-0.0169808,VALID,19.9977,VALID,95,VALID,0.233953,
1999-10-19, 00:42:00,VALID,0,VALID,99.5323,VALID,0,VALID,19.9821,VALID,62,VALID,0.184622,
1999-10-19, 00:43:00,VALID,0,VALID,99.4992,VALID,0,VALID,19.9597,VALID,39,VALID,0.616425,
1999-10-19, 00:44:00,VALID,0,VALID,99.5081,VALID,0,VALID,19.943,VALID,66,VALID,0.656851,
1999-10-19, 00:45:00,VALID,0,VALID,99.5501,VALID,-0.0339617,VALID,19.9497,VALID,75,VALID,0.94778,
1999-10-19, 00:46:00,VALID,0,VALID,99.4649,VALID,0,VALID,19.9072,VALID,35,VALID,0.921274,
1999-10-19, 00:47:01,VALID,0,VALID,99.4369,VALID,0,VALID,19.8972,VALID,56,VALID,0.704603,
1999-10-19, 00:48:00,VALID,0.2,VALID,99.5069,VALID,-0.0169808,VALID,19.9333,VALID,91,VALID,0.713281,
1999-10-19, 00:49:00,VALID,0,VALID,99.5399,VALID,0,VALID,19.9557,VALID,99,VALID,1.07895,
1999-10-19, 00:50:00,VALID,0,VALID,99.5743,VALID,-0.0169808,VALID,19.9686,VALID,88,VALID,0.622396,
1999-10-19, 00:51:00,VALID,0,VALID,99.6048,VALID,0,VALID,20.0015,VALID,89,VALID,1.38301,
1999-10-19, 00:52:00,VALID,0,VALID,99.6035,VALID,-0.0339617,VALID,20.0017,VALID,89,VALID,0.991987,
1999-10-19, 00:53:00,VALID,0,VALID,99.5933,VALID,-0.0169808,VALID,19.9853,VALID,98,VALID,1.51133,
1999-10-19, 00:54:00,VALID,0,VALID,99.5933,VALID,-0.0169808,VALID,19.9845,VALID,100,VALID,1.23778,
1999-10-19, 00:55:00,VALID,0,VALID,99.5819,VALID,0,VALID,19.9786,VALID,100,VALID,0.783053,
1999-10-19, 00:56:00,VALID,0,VALID,99.545,VALID,-0.0509425,VALID,19.9564,VALID,102,VALID,1.26748,
1999-10-19, 00:57:00,VALID,0,VALID,99.5374,VALID,-0.0169808,VALID,19.934,VALID,74,VALID,1.0655,
1999-10-19, 00:58:01,VALID,0,VALID,99.5654,VALID,-0.0169808,VALID,19.9368,VALID,69,VALID,0.619792,
1999-10-19, 00:59:00,VALID,0,VALID,99.5628,VALID,0,VALID,19.9007,VALID,69,VALID,0.619655,
1999-10-19, 01:00:00,VALID,0,VALID,99.3912,VALID,0,VALID,19.8437,VALID,69,VALID,0.775586,
1999-10-19, 01:01:00,VALID,0,VALID,99.1661,VALID,-0.0339617,VALID,19.7527,VALID,76,VALID,1.40055,
1999-10-19, 01:02:00,VALID,0,VALID,99.1076,VALID,-0.0679233,VALID,19.7238,VALID,88,VALID,0.910457,
1999-10-19, 01:03:00,VALID,0,VALID,99.1203,VALID,-0.0339617,VALID,19.744,VALID,112,VALID,0.453125,
1999-10-19, 01:04:00,VALID,0,VALID,98.9156,VALID,-0.0509425,VALID,19.6755,VALID,64,VALID,0.992383,
1999-10-19, 01:05:00,VALID,0,VALID,98.9906,VALID,-0.0679233,VALID,19.6949,VALID,69,VALID,1.04824,
1999-10-19, 01:06:00,VALID,0,VALID,99.0427,VALID,-0.0509425,VALID,19.7173,VALID,78,VALID,0.555088,
1999-10-19, 01:07:00,VALID,0,VALID,99.0771,VALID,-0.0679233,VALID,19.7477,VALID,103,VALID,0.48112,
1999-10-19, 01:08:00,VALID,0,VALID,99.0402,VALID,-0.0509425,VALID,19.7208,VALID,98,VALID,0.335156,
1999-10-19, 01:09:01,VALID,0,VALID,98.9753,VALID,-0.0509425,VALID,19.7111,VALID,104,VALID,0.000801282,
1999-10-19, 01:10:00,VALID,0,VALID,98.9054,VALID,-0.0849042,VALID,19.689,VALID,107,VALID,0.279139,
1999-10-19, 01:11:00,VALID,0,VALID,98.9207,VALID,-0.0169808,VALID,19.6857,VALID,99,VALID,0.590345,
1999-10-19, 01:12:00,VALID,0,VALID,98.9703,VALID,-0.0679233,VALID,19.6788,VALID,104,VALID,0.510769,
1999-10-19, 01:13:00,VALID,0,VALID,99.0275,VALID,-0.0509425,VALID,19.7019,VALID,100,VALID,0.924959,
1999-10-19, 01:14:00,VALID,0,VALID,99.0949,VALID,-0.0509425,VALID,19.7114,VALID,96,VALID,0.848357,
1999-10-19, 01:15:00,VALID,0,VALID,99.0885,VALID,-0.0169808,VALID,19.6977,VALID,97,VALID,1.02304,
1999-10-19, 01:16:00,VALID,0,VALID,99.0237,VALID,0.0339617,VALID,19.6741,VALID,102,VALID,1.04502,
1999-10-19, 01:17:00,VALID,0,VALID,99.0555,VALID,0.0339617,VALID,19.688,VALID,106,VALID,0.94371,
1999-10-19, 01:18:00,VALID,0,VALID,99.0186,VALID,0.0169808,VALID,19.6711,VALID,90,VALID,0.291406,
1999-10-19, 01:19:00,VALID,0,VALID,98.8558,VALID,0.0169808,VALID,19.6066,VALID,104,VALID,0.504934,
1999-10-19, 01:20:01,VALID,0,VALID,98.9105,VALID,0.0339617,VALID,19.6101,VALID,104,VALID,0.789253,
1999-10-19, 01:21:00,VALID,0,VALID,99.0059,VALID,0.0339617,VALID,19.6422,VALID,113,VALID,0.5625,
1999-10-19, 01:22:00,VALID,0,VALID,99.0427,VALID,0,VALID,19.6556,VALID,120,VALID,0.0873766,
1999-10-19, 01:23:00,VALID,0,VALID,99.0224,VALID,0.0339617,VALID,19.6417,VALID,119,VALID,0.0351563,
1999-10-19, 01:24:00,VALID,0,VALID,98.9118,VALID,0.0339617,VALID,19.6295,VALID,147,VALID,0.00195313,
1999-10-19, 01:25:00,VALID,0,VALID,98.7999,VALID,0.0169808,VALID,19.6039,VALID,179,VALID,0.00200321,
1999-10-19, 01:26:00,VALID,0,VALID,98.7833,VALID,0.0169808,VALID,19.6012,VALID,259,VALID,0.078125,
1999-10-19, 01:27:00,VALID,0,VALID,98.8139,VALID,0,VALID,19.5974,VALID,242,VALID,0,
1999-10-19, 01:28:00,VALID,0,VALID,98.8507,VALID,0.0169808,VALID,19.5905,VALID,119,VALID,0.293555,
1999-10-19, 01:29:00,VALID,0,VALID,98.9461,VALID,0,VALID,19.5969,VALID,103,VALID,1.05016,
1999-10-19, 01:30:00,VALID,0,VALID,98.894,VALID,0.0169808,VALID,19.5808,VALID,102,VALID,0.88898,
1999-10-19, 01:31:01,VALID,0,VALID,98.7706,VALID,0.0339617,VALID,19.5551,VALID,107,VALID,0.737981,
1999-10-19, 01:32:00,VALID,0,VALID,98.8062,VALID,0,VALID,19.5623,VALID,108,VALID,1.07603,
1999-10-19, 01:33:00,VALID,0,VALID,98.6549,VALID,0.0169808,VALID,19.5128,VALID,84,VALID,1.62109,
1999-10-19, 01:34:00,VALID,0,VALID,98.4845,VALID,0.0169808,VALID,19.5161,VALID,81,VALID,0.691817,
1999-10-19, 01:35:00,VALID,0,VALID,98.2289,VALID,0,VALID,19.5163,VALID,88,VALID,0.79153,
1999-10-19, 01:36:00,VALID,0,VALID,98.2467,VALID,0,VALID,19.5258,VALID,91,VALID,0.392228,
1999-10-19, 01:37:00,VALID,0,VALID,98.3434,VALID,0.0169808,VALID,19.5422,VALID,99,VALID,0.507607,
1999-10-19, 01:38:00,VALID,0,VALID,98.4031,VALID,0,VALID,19.5325,VALID,104,VALID,0.178454,
1999-10-19, 01:39:00,VALID,0,VALID,98.3103,VALID,0.0169808,VALID,19.5163,VALID,99,VALID,0.510634,
1999-10-19, 01:40:01,VALID,0,VALID,98.1997,VALID,0.0169808,VALID,19.4937,VALID,89,VALID,1.49499,
1999-10-19, 01:41:01,VALID,0,VALID,97.9377,VALID,0.0169808,VALID,19.4902,VALID,80,VALID,0.874047,
1999-10-19, 01:42:01,VALID,0,VALID,97.7724,VALID,0.0339617,VALID,19.5004,VALID,88,VALID,1.14126,
1999-10-19, 01:43:00,VALID,0,VALID,97.733,VALID,0,VALID,19.4872,VALID,92,VALID,1.15723,
1999-10-19, 01:44:00,VALID,0,VALID,97.7381,VALID,0.0169808,VALID,19.4944,VALID,97,VALID,0.985403,
1999-10-19, 01:45:00,VALID,0,VALID,97.6986,VALID,0.0339617,VALID,19.4745,VALID,82,VALID,0.579392,
1999-10-19, 01:46:00,VALID,0,VALID,97.7622,VALID,-0.0509425,VALID,19.4957,VALID,79,VALID,0.422903,
1999-10-19, 01:47:00,VALID,0,VALID,97.6198,VALID,-0.0339617,VALID,19.4462,VALID,52,VALID,0.464748,
1999-10-19, 01:48:00,VALID,0.2,VALID,97.7368,VALID,-0.0679233,VALID,19.4501,VALID,94,VALID,0.257212,
1999-10-19, 01:49:00,VALID,0,VALID,98.0318,VALID,-0.0509425,VALID,19.4725,VALID,108,VALID,0,
1999-10-19, 01:50:00,VALID,0,VALID,98.1666,VALID,-0.0849042,VALID,19.4857,VALID,90,VALID,0.105569,
1999-10-19, 01:51:00,VALID,0,VALID,98.0051,VALID,-0.0849042,VALID,19.4471,VALID,89,VALID,0.855785,
1999-10-19, 01:52:00,VALID,0,VALID,98.075,VALID,-0.118866,VALID,19.4536,VALID,95,VALID,0.529102,
1999-10-19, 01:53:00,VALID,0,VALID,98.1475,VALID,-0.0849042,VALID,19.4434,VALID,75,VALID,0.543586,
1999-10-19, 01:54:00,VALID,0,VALID,97.986,VALID,-0.101885,VALID,19.4277,VALID,79,VALID,0.367622,
1999-10-19, 01:55:00,VALID,0,VALID,98.1145,VALID,-0.0849042,VALID,19.431,VALID,73,VALID,0.404046,
1999-10-19, 01:56:00,VALID,0,VALID,98.0903,VALID,-0.0509425,VALID,19.4019,VALID,65,VALID,0.367588,
1999-10-19, 01:57:00,VALID,0,VALID,97.9924,VALID,-0.0679233,VALID,19.3658,VALID,78,VALID,0.502148,
1999-10-19, 01:58:00,VALID,0,VALID,98.0204,VALID,-0.0849042,VALID,19.3501,VALID,63,VALID,0.360577,
1999-10-19, 01:59:00,VALID,0,VALID,98.1386,VALID,-0.0679233,VALID,19.3566,VALID,74,VALID,0.015024,
1999-10-19, 02:00:00,VALID,0,VALID,98.2429,VALID,-0.0849042,VALID,19.3728,VALID,71,VALID,0,
1999-10-19, 02:01:00,VALID,0,VALID,98.2505,VALID,-0.0679233,VALID,19.3623,VALID,75,VALID,0,
1999-10-19, 02:02:00,VALID,0.2,VALID,98.4413,VALID,-0.0339617,VALID,19.3688,VALID,80,VALID,0,
1999-10-19, 02:03:01,VALID,0,VALID,98.5481,VALID,0,VALID,19.388,VALID,77,VALID,0,
1999-10-19, 02:04:00,VALID,0,VALID,98.4209,VALID,-0.0169808,VALID,19.3591,VALID,77,VALID,0,
1999-10-19, 02:05:00,VALID,0,VALID,98.4451,VALID,-0.0169808,VALID,19.3591,VALID,77,VALID,0,
1999-10-19, 02:06:00,VALID,0,VALID,98.4158,VALID,-0.0169808,VALID,19.3424,VALID,77,VALID,0,
1999-10-19, 02:07:00,VALID,0,VALID,98.3929,VALID,-0.0169808,VALID,19.3429,VALID,86,VALID,0.0480469,
1999-10-19, 02:08:00,VALID,0,VALID,98.3065,VALID,-0.0509425,VALID,19.3235,VALID,85,VALID,0.64707,
1999-10-19, 02:09:00,VALID,0,VALID,98.2976,VALID,-0.0339617,VALID,19.3238,VALID,102,VALID,0.858789,
1999-10-19, 02:10:00,VALID,0,VALID,98.3077,VALID,-0.0339617,VALID,19.3369,VALID,108,VALID,0.702925,
1999-10-19, 02:11:00,VALID,0,VALID,98.3624,VALID,-0.0509425,VALID,19.3362,VALID,106,VALID,0.796658,
1999-10-19, 02:12:00,VALID,0,VALID,98.3243,VALID,-0.0169808,VALID,19.3297,VALID,119,VALID,0.705078,
1999-10-19, 02:13:01,VALID,0,VALID,98.3802,VALID,-0.0509425,VALID,19.3399,VALID,123,VALID,0.634615,
1999-10-19, 02:14:00,VALID,0,VALID,98.4489,VALID,-0.0339617,VALID,19.3327,VALID,112,VALID,0.238387,
1999-10-19, 02:15:00,VALID,0,VALID,98.4196,VALID,-0.0509425,VALID,19.3369,VALID,133,VALID,0,
1999-10-19, 02:16:00,VALID,0,VALID,98.3713,VALID,-0.0339617,VALID,19.3101,VALID,143,VALID,0,
1999-10-19, 02:17:00,VALID,0,VALID,98.4018,VALID,-0.0169808,VALID,19.3208,VALID,145,VALID,0,
1999-10-19, 02:18:00,VALID,0,VALID,98.412,VALID,-0.0339617,VALID,19.3108,VALID,145,VALID,0,
1999-10-19, 02:19:00,VALID,0,VALID,98.5964,VALID,-0.0849042,VALID,19.3367,VALID,145,VALID,0,
1999-10-19, 02:20:00,VALID,0,VALID,98.7287,VALID,-0.0679233,VALID,19.3658,VALID,121,VALID,0,
1999-10-19, 02:21:00,VALID,0.2,VALID,98.7808,VALID,-0.0169808,VALID,19.369,VALID,103,VALID,0,
1999-10-19, 02:22:00,VALID,0,VALID,98.8545,VALID,-0.0679233,VALID,19.3914,VALID,66,VALID,0,
1999-10-19, 02:23:00,VALID,0,VALID,98.7452,VALID,-0.0339617,VALID,19.3656,VALID,60,VALID,0,
1999-10-19, 02:24:01,VALID,0,VALID,98.6956,VALID,-0.0339617,VALID,19.3459,VALID,60,VALID,0,
1999-10-19, 02:25:00,VALID,0,VALID,98.6841,VALID,-0.0509425,VALID,19.3369,VALID,60,VALID,0,
1999-10-19, 02:26:00,VALID,0,VALID,98.7757,VALID,-0.0169808,VALID,19.3496,VALID,97,VALID,0,
1999-10-19, 02:27:00,VALID,0,VALID,98.7922,VALID,-0.0679233,VALID,19.3563,VALID,119,VALID,0,
1999-10-19, 02:28:00,VALID,0,VALID,98.749,VALID,0,VALID,19.336,VALID,124,VALID,0,
1999-10-19, 02:29:00,VALID,0,VALID,98.7821,VALID,-0.0169808,VALID,19.3591,VALID,120,VALID,0,
1999-10-19, 02:30:00,VALID,0.2,VALID,98.8596,VALID,-0.0509425,VALID,19.3782,VALID,113,VALID,0,
1999-10-19, 02:31:00,VALID,0,VALID,98.913,VALID,-0.0679233,VALID,19.3914,VALID,116,VALID,0,
1999-10-19, 02:32:00,VALID,0,VALID,98.9105,VALID,-0.0339617,VALID,19.3981,VALID,131,VALID,0,
1999-10-19, 02:33:00,VALID,0,VALID,98.9092,VALID,-0.0169808,VALID,19.3952,VALID,131,VALID,0,
1999-10-19, 02:34:00,VALID,0,VALID,98.955,VALID,-0.0849042,VALID,19.3981,VALID,127,VALID,0,
1999-10-19, 02:35:01,VALID,0,VALID,98.9715,VALID,-0.0679233,VALID,19.4138,VALID,125,VALID,0,
1999-10-19, 02:36:00,VALID,0,VALID,98.9893,VALID,0,VALID,19.4337,VALID,114,VALID,0,
1999-10-19, 02:37:00,VALID,0,VALID,98.9982,VALID,-0.0169808,VALID,19.4337,VALID,95,VALID,0,
1999-10-19, 02:38:00,VALID,0,VALID,98.9448,VALID,-0.0679233,VALID,19.4243,VALID,95,VALID,0,
1999-10-19, 02:39:00,VALID,0,VALID,98.8456,VALID,-0.0169808,VALID,19.3949,VALID,95,VALID,0,
1999-10-19, 02:40:00,VALID,0,VALID,98.81,VALID,-0.0339617,VALID,19.3852,VALID,95,VALID,0,
1999-10-19, 02:41:00,VALID,0,VALID,98.8482,VALID,-0.0679233,VALID,19.3974,VALID,95,VALID,0,
1999-10-19, 02:42:00,VALID,0,VALID,98.8418,VALID,-0.0339617,VALID,19.4108,VALID,95,VALID,0,
1999-10-19, 02:43:00,VALID,0,VALID,98.7477,VALID,-0.0339617,VALID,19.3979,VALID,95,VALID,0,
1999-10-19, 02:44:00,VALID,0,VALID,98.7121,VALID,-0.0169808,VALID,19.4183,VALID,92,VALID,0,
1999-10-19, 02:45:00,VALID,0.2,VALID,98.7528,VALID,-0.0509425,VALID,19.4143,VALID,84,VALID,0,
1999-10-19, 02:46:00,VALID,0,VALID,98.7274,VALID,0,VALID,19.4044,VALID,84,VALID,0,
1999-10-19, 02:47:00,VALID,0,VALID,98.693,VALID,-0.0169808,VALID,19.3977,VALID,84,VALID,0,
1999-10-19, 02:48:00,VALID,0,VALID,98.6714,VALID,-0.0169808,VALID,19.3879,VALID,77,VALID,0,
1999-10-19, 02:49:00,VALID,0,VALID,98.6536,VALID,-0.0169808,VALID,19.3879,VALID,74,VALID,0,
1999-10-19, 02:50:00,VALID,0,VALID,98.8126,VALID,-0.0169808,VALID,19.4203,VALID,80,VALID,0,
1999-10-19, 02:51:00,VALID,0.2,VALID,98.8723,VALID,0,VALID,19.4332,VALID,95,VALID,0,
1999-10-19, 02:52:00,VALID,0,VALID,98.8342,VALID,0,VALID,19.4168,VALID,95,VALID,0,
1999-10-19, 02:53:00,VALID,0,VALID,98.8393,VALID,-0.0169808,VALID,19.4108,VALID,95,VALID,0,
1999-10-19, 02:54:00,VALID,0,VALID,98.8482,VALID,-0.0339617,VALID,19.4041,VALID,93,VALID,0,
1999-10-19, 02:55:00,VALID,0.2,VALID,98.7986,VALID,-0.0509425,VALID,19.3947,VALID,91,VALID,0,
1999-10-19, 02:56:00,VALID,0,VALID,98.8584,VALID,-0.0509425,VALID,19.4049,VALID,105,VALID,0,
1999-10-19, 02:57:00,VALID,0,VALID,98.9156,VALID,-0.0339617,VALID,19.4011,VALID,117,VALID,0,
1999-10-19, 02:58:00,VALID,0,VALID,98.9779,VALID,-0.0509425,VALID,19.4208,VALID,112,VALID,0,
1999-10-19, 02:59:00,VALID,0,VALID,99.0694,VALID,-0.0169808,VALID,19.4203,VALID,107,VALID,0,
1999-10-19, 03:00:00,VALID,0.2,VALID,99.0618,VALID,-0.0169808,VALID,19.4143,VALID,97,VALID,0,
1999-10-19, 03:01:00,VALID,0,VALID,99.1216,VALID,-0.0169808,VALID,19.437,VALID,95,VALID,0,
1999-10-19, 03:02:00,VALID,0,VALID,99.0097,VALID,-0.0339617,VALID,19.3882,VALID,90,VALID,0,
1999-10-19, 03:03:00,VALID,0,VALID,99.0605,VALID,-0.0169808,VALID,19.3914,VALID,98,VALID,0,
1999-10-19, 03:04:00,VALID,0,VALID,99.1432,VALID,-0.0339617,VALID,19.4074,VALID,98,VALID,0,
1999-10-19, 03:05:00,VALID,0.2,VALID,99.1724,VALID,-0.0509425,VALID,19.4205,VALID,109,VALID,0,
1999-10-19, 03:06:00,VALID,0,VALID,99.0542,VALID,-0.0339617,VALID,19.372,VALID,107,VALID,0,
1999-10-19, 03:07:00,VALID,0,VALID,99.0872,VALID,-0.0339617,VALID,19.3685,VALID,118,VALID,0,
1999-10-19, 03:08:00,VALID,0,VALID,99.1254,VALID,0,VALID,19.3817,VALID,105,VALID,0,
1999-10-19, 03:09:01,VALID,0,VALID,99.133,VALID,0,VALID,19.3748,VALID,98,VALID,0,
1999-10-19, 03:10:00,VALID,0,VALID,99.1813,VALID,0,VALID,19.3879,VALID,110,VALID,0,
1999-10-19, 03:11:00,VALID,0,VALID,99.1546,VALID,-0.0339617,VALID,19.3914,VALID,137,VALID,0,
1999-10-19, 03:12:00,VALID,0.2,VALID,98.9626,VALID,-0.0169808,VALID,19.3364,VALID,160,VALID,0,
1999-10-19, 03:13:00,VALID,0,VALID,98.8762,VALID,-0.0679233,VALID,19.3009,VALID,172,VALID,0,
1999-10-19, 03:14:00,VALID,0,VALID,98.8189,VALID,-0.0509425,VALID,19.2683,VALID,177,VALID,0,
1999-10-19, 03:15:00,VALID,0,VALID,98.8507,VALID,-0.0339617,VALID,19.2484,VALID,179,VALID,0,
1999-10-19, 03:16:00,VALID,0,VALID,98.9385,VALID,-0.0339617,VALID,19.2519,VALID,216,VALID,0,
1999-10-19, 03:17:00,VALID,0,VALID,98.9982,VALID,-0.0169808,VALID,19.2752,VALID,212,VALID,0,
1999-10-19, 03:18:00,VALID,0,VALID,98.9944,VALID,-0.0339617,VALID,19.2653,VALID,214,VALID,0,
1999-10-19, 03:19:00,VALID,0,VALID,99.0415,VALID,-0.0169808,VALID,19.2588,VALID,231,VALID,0,
1999-10-19, 03:20:01,VALID,0,VALID,99.0822,VALID,-0.0509425,VALID,19.2815,VALID,221,VALID,0,
1999-10-19, 03:21:00,VALID,0,VALID,99.0402,VALID,-0.0169808,VALID,19.2653,VALID,206,VALID,0,
1999-10-19, 03:22:00,VALID,0,VALID,99.0822,VALID,0,VALID,19.2621,VALID,212,VALID,0,
1999-10-19, 03:23:00,VALID,0,VALID,99.1381,VALID,-0.0509425,VALID,19.2554,VALID,216,VALID,0,
1999-10-19, 03:24:00,VALID,0,VALID,99.1076,VALID,-0.0679233,VALID,19.2621,VALID,204,VALID,0,
1999-10-19, 03:25:00,VALID,0,VALID,99.147,VALID,-0.0169808,VALID,19.2718,VALID,205,VALID,0,
1999-10-19, 03:26:00,VALID,0,VALID,99.1966,VALID,-0.0339617,VALID,19.278,VALID,206,VALID,0,
1999-10-19, 03:27:00,VALID,0,VALID,99.2475,VALID,-0.0169808,VALID,19.2976,VALID,211,VALID,0,
1999-10-19, 03:28:00,VALID,0,VALID,99.2106,VALID,-0.0169808,VALID,19.2972,VALID,233,VALID,0,
1999-10-19, 03:29:00,VALID,0,VALID,99.2373,VALID,-0.0169808,VALID,19.2974,VALID,241,VALID,0,
1999-10-19, 03:30:00,VALID,0.2,VALID,99.264,VALID,-0.0169808,VALID,19.3001,VALID,242,VALID,0,
1999-10-19, 03:31:01,VALID,0,VALID,99.2729,VALID,-0.0339617,VALID,19.3069,VALID,237,VALID,0,
1999-10-19, 03:32:00,VALID,0,VALID,99.3161,VALID,0,VALID,19.3098,VALID,235,VALID,0,
1999-10-19, 03:33:00,VALID,0,VALID,99.3492,VALID,0,VALID,19.3263,VALID,235,VALID,0,
1999-10-19, 03:34:00,VALID,0,VALID,99.3479,VALID,0,VALID,19.3297,VALID,235,VALID,0,
1999-10-19, 03:35:00,VALID,0,VALID,99.3454,VALID,0,VALID,19.3166,VALID,237,VALID,0,
1999-10-19, 03:36:00,VALID,0,VALID,99.3632,VALID,0,VALID,19.3364,VALID,255,VALID,0,
1999-10-19, 03:37:00,VALID,0,VALID,99.3632,VALID,0,VALID,19.3166,VALID,276,VALID,0,
1999-10-19, 03:38:00,VALID,0,VALID,99.3581,VALID,0,VALID,19.3101,VALID,259,VALID,0,
1999-10-19, 03:39:00,VALID,0,VALID,99.367,VALID,0,VALID,19.2999,VALID,273,VALID,0,
1999-10-19, 03:40:00,VALID,0,VALID,99.3784,VALID,-0.0169808,VALID,19.3036,VALID,297,VALID,0,
1999-10-19, 03:41:01,VALID,0,VALID,99.3314,VALID,-0.0339617,VALID,19.2872,VALID,304,VALID,0.232422,
1999-10-19, 03:42:01,VALID,0,VALID,99.3123,VALID,-0.0339617,VALID,19.2681,VALID,301,VALID,0.637952,
1999-10-19, 03:43:00,VALID,0,VALID,99.2462,VALID,-0.0509425,VALID,19.2454,VALID,300,VALID,0.646382,
1999-10-19, 03:44:00,VALID,0,VALID,99.2055,VALID,0,VALID,19.2491,VALID,298,VALID,0.389223,
1999-10-19, 03:45:00,VALID,0,VALID,99.2208,VALID,-0.0169808,VALID,19.2621,VALID,289,VALID,0,
1999-10-19, 03:46:00,VALID,0,VALID,99.2589,VALID,0.0849042,VALID,19.2701,VALID,311,VALID,0.342516,
1999-10-19, 03:47:00,VALID,0,VALID,99.2907,VALID,0.0679233,VALID,19.2895,VALID,287,VALID,0.281901,
1999-10-19, 03:48:00,VALID,0,VALID,99.2958,VALID,0.0679233,VALID,19.2997,VALID,322,VALID,0.646835,
1999-10-19, 03:49:00,VALID,0,VALID,99.2347,VALID,0.0679233,VALID,19.2865,VALID,317,VALID,0.580602,
1999-10-19, 03:50:00,VALID,0,VALID,99.203,VALID,0.0509425,VALID,19.2668,VALID,301,VALID,0.387458,
1999-10-19, 03:51:00,VALID,0,VALID,99.3047,VALID,0.0849042,VALID,19.2927,VALID,303,VALID,0.166797,
1999-10-19, 03:52:01,VALID,0,VALID,99.3416,VALID,0.101885,VALID,19.3054,VALID,316,VALID,0.980263,
1999-10-19, 03:53:01,VALID,0,VALID,99.3606,VALID,0.0849042,VALID,19.2895,VALID,312,VALID,1.26774,
1999-10-19, 03:54:00,VALID,0,VALID,99.409,VALID,0.0849042,VALID,19.2897,VALID,329,VALID,0.741776,
1999-10-19, 03:55:00,VALID,0,VALID,99.4649,VALID,0.0509425,VALID,19.2897,VALID,326,VALID,0.304116,
1999-10-19, 03:56:00,VALID,0,VALID,99.5005,VALID,0.0849042,VALID,19.2959,VALID,307,VALID,0.404447,
1999-10-19, 03:57:00,VALID,0,VALID,99.5437,VALID,0.0849042,VALID,19.2962,VALID,273,VALID,0.642475,
1999-10-19, 03:58:00,VALID,0,VALID,99.5666,VALID,0.101885,VALID,19.2892,VALID,314,VALID,0.760417,
1999-10-19, 03:59:00,VALID,0,VALID,99.5717,VALID,0.101885,VALID,19.2733,VALID,321,VALID,0.469383,
1999-10-19, 04:00:00,VALID,0,VALID,99.5819,VALID,0.0679233,VALID,19.2668,VALID,297,VALID,0.466211,
1999-10-19, 04:01:00,VALID,0,VALID,99.6709,VALID,0,VALID,19.2807,VALID,335,VALID,0,
1999-10-19, 04:02:00,VALID,0,VALID,99.6849,VALID,-0.0169808,VALID,19.2683,VALID,319,VALID,0,
1999-10-19, 04:03:00,VALID,0,VALID,99.723,VALID,0,VALID,19.2879,VALID,296,VALID,0.0352564,
1999-10-19, 04:04:01,VALID,0,VALID,99.7434,VALID,-0.0169808,VALID,19.3009,VALID,259,VALID,0.0625,
1999-10-19, 04:05:00,VALID,0,VALID,99.7752,VALID,-0.0169808,VALID,19.317,VALID,296,VALID,0.123633,
1999-10-19, 04:06:00,VALID,0,VALID,99.7854,VALID,-0.0169808,VALID,19.3198,VALID,177,VALID,0.113181,
1999-10-19, 04:07:00,VALID,0,VALID,99.7739,VALID,-0.0509425,VALID,19.3235,VALID,248,VALID,0.0839343,
1999-10-19, 04:08:00,VALID,0,VALID,99.7548,VALID,-0.0169808,VALID,19.3133,VALID,229,VALID,0.491571,
1999-10-19, 04:09:00,VALID,0,VALID,99.7548,VALID,-0.0339617,VALID,19.3069,VALID,243,VALID,0.284054,